Location: Unspecified
(0.0000°N, 0.0000°E)
Time: 16:15:09
(UTC+00:00)

CZ-3B DEB - Pass Details

Date: 11 November 2025
Orbit: 513 x 39779 km, 23.4° (Epoch: 12 December)

Event Time Altitude Azimuth Distance (km) Brightness Sun altitude
Rises 21:18:22 0° 258° (WSW) 13,935 ? -50.0°
Reaches altitude 10° 21:28:47 10° 261° (W) 15,532 ? -52.3°
Maximum altitude 22:48:45 30° 276° (W) 28,328 ? -67.7°
Drops below altitude 10° 02:04:30 10° 286° (WNW) 44,007 ? -51.2°
Sets 03:18:23 0° 288° (WNW) 44,739 ? -34.5°
